Location: Courçay
(47.2523°N, 0.8761°E)
Time: 00:53:25
(UTC+00:00)

CZ-4C R/B - Pass Details

Date: 18 November 2025
Orbit: 487 x 1492 km, 63.4° (Epoch: 05 December)

Event Time Altitude Azimuth Distance (km) Brightness Sun altitude
Rises 16:53:44 0° 263° (W) 2,868 6.8 -6.4°
Reaches altitude 10° 16:56:07 10° 277° (W) 2,085 5.4 -6.7°
Maximum altitude 17:00:06 26° 335° (NNW) 1,487 3.6 -7.4°
Drops below altitude 10° 17:05:00 10° 30° (NNE) 2,603 4.3 -8.1°
Enters shadow 17:06:45 - 38° (NE) 3,197 4.7 -8.4°
